Flag for Australia Weather past 2 weeks in Samford, Queensland, Australia

Now
63 °F

Clear.


Feels Like: 63 °F
Forecast: 52 / 75 °F
Wind: 13 mph from Southwest

Location: Brisbane Airport M. O

Current Time: Apr 26, 2015 at 9:45:27 PM

Latest Report: Apr 26, 2015 at 9:00 PM


Visibility: 10 mi

Pressure: 29.98 "Hg

Humidity: 42%

Dew point: 39 °F

Location of SamfordLocation

Historic Weather in Samford — Graph

°F

Samford temperature yesterday

Maximum temperature yesterday: 81 °F (at 11:00 AM)
Minimum temperature yesterday: 59 °F (at 5:30 AM)
Average temperature yesterday: 70 °F

Past Weeks' High & Low Weather Summary

 TemperatureHumidityPressure
High81 °F (Apr 18, 11:30 AM)100% (Apr 18, 7:00 AM)30.30 "Hg (Apr 18, 7:00 AM)
Low52 °F (Apr 23, 5:00 AM)22% (Apr 26, 1:30 PM)29.74 "Hg (Apr 24, 2:00 PM)
Average69 °F72%30.02 "Hg
* Reported Apr 11 9:00 PM — Apr 26 9:00 PM, Samford, Weather by CustomWeather, © 2015

Note: Actual official high and low records may vary slightly from our data, if they occured in-between our weather recording intervals... More about our weather records

Advertising

Samford weather history for previous 24 hours

 ConditionsComfort  
Time TempWeatherWind HumidityBarometerVisibility
9:00 PM
Sun, Apr 26
63 °FClear.13 mph42%29.98 "Hg10 mi
8:30 PM63 °FClear.20 mph45%29.98 "Hg10 mi
8:00 PM63 °FClear.13 mph45%29.98 "Hg10 mi
7:30 PM63 °FClear.13 mph45%29.98 "Hg10 mi
7:00 PM64 °FClear.14 mph40%29.95 "Hg10 mi
6:30 PM64 °FPassing clouds.12 mph40%29.95 "HgN/A
6:00 PM64 °FClear.13 mph40%29.92 "Hg10 mi
5:30 PM66 °FClear.16 mph37%29.92 "Hg10 mi
5:00 PM68 °FClear.16 mph35%29.89 "Hg10 mi
4:30 PM70 °FClear.17 mph31%29.89 "Hg10 mi
4:00 PM70 °FSunny.20 mph29%29.86 "Hg10 mi
3:30 PM72 °FSunny.22 mph29%29.86 "Hg10 mi
3:00 PM73 °FSunny.22 mph23%29.83 "Hg10 mi
2:00 PM73 °FSunny.30 mph25%29.83 "Hg10 mi
1:30 PM73 °FSunny.28 mph22%29.80 "Hg10 mi
1:00 PM72 °FSunny.23 mph27%29.83 "Hg10 mi
12:30 PM73 °FSunny.32 mph23%29.80 "Hg10 mi
12:05 PM72 °FSunny.31 mph23%29.80 "Hg10 mi
11:30 AM72 °FSunny.33 mph27%29.83 "Hg10 mi
11:00 AM72 °FSunny.29 mph29%29.86 "Hg10 mi
10:30 AM70 °FSunny.26 mph31%29.86 "Hg10 mi
10:00 AM70 °FSunny.26 mph31%29.86 "Hg10 mi
9:00 AM66 °FSunny.29 mph35%29.86 "Hg10 mi
8:53 AM66 °FSunny.26 mph35%29.86 "Hg10 mi
8:30 AM66 °FSunny.26 mph35%29.86 "Hg10 mi
8:00 AM66 °FSunny.24 mph35%29.86 "Hg10 mi
7:00 AM64 °FSunny.21 mph37%29.86 "Hg10 mi
6:30 AM64 °FSunny.16 mph37%29.83 "Hg10 mi
6:00 AM64 °FSunny.10 mph34%29.83 "Hg10 mi
5:30 AM64 °FSunny.10 mph34%29.83 "Hg10 mi
5:00 AM66 °FClear.9 mph32%29.83 "Hg10 mi
4:30 AM66 °FClear.13 mph35%29.80 "Hg10 mi
4:00 AM68 °FClear.14 mph33%29.80 "Hg10 mi
3:00 AM66 °FClear.10 mph43%29.80 "Hg10 mi
2:30 AM66 °FClear.10 mph43%29.80 "Hg10 mi
2:00 AM66 °FClear.12 mph49%29.77 "Hg10 mi
1:30 AM63 °FClear.8 mph68%29.77 "Hg10 mi
1:00 AM61 °FClear.5 mph88%29.77 "Hg10 mi
12:30 AM64 °FClear.No wind83%29.77 "Hg10 mi
12:00 AM66 °FClear.6 mph78%29.77 "Hg10 mi
11:30 PM
Sat, Apr 25
68 °FClear.7 mph73%29.80 "Hg10 mi
11:00 PM68 °FClear.5 mph78%29.80 "Hg10 mi
10:30 PM68 °FClear.7 mph83%29.80 "Hg10 mi
10:00 PM70 °FClear.12 mph78%29.80 "Hg10 mi
9:30 PM70 °FClear.9 mph78%29.80 "Hg10 mi
9:00 PM70 °FClear.8 mph73%29.80 "Hg10 mi
Weather by CustomWeather, © 2015

See weather overviewHow to use our weather pages